^^
Meteo Knjazevac Station Historical Data
Daily Summary for January 9, 2021 Units:  English    Metric   Both
Daily Weekly Monthly Yearly Custom
  High: Low: Average:
Temperature: 48 °F 43.3 °F 45.4 °F
Dew Point: 44.9 °F 40.8 °F 43.2 °F
Humidity: 96% 86% 92%
Wind Speed: 9mph 2mph 5.5mph
Wind Gust: 20mph - -
Wind- - SSE
Pressure: 30.29 in 30.25 in -
Precipitation: 0.12 in    
Historical Graphs
 
 
Tabular Data for January 9, 2021
Time Temperature Dew Point Pressure Wind Wind Speed Wind Gust Humidity Rainfall Rate (Hourly) solar Conditions
00:00 44.1 °F 41.3 °F 30.28 in North 7 mph 15 mph 90% 0.00 in 0 W/m2
00:10 44.1 °F 41.3 °F 30.28 in North 5 mph 14 mph 90% 0.00 in 0 W/m2
00:20 44.1 °F 41 °F 30.28 in North 5 mph 11 mph 89% 0.00 in 0 W/m2
00:30 44.2 °F 41.2 °F 30.28 in North 5 mph 9 mph 89% 0.00 in 0 W/m2
00:40 44.2 °F 41.5 °F 30.28 in North 2 mph 9 mph 90% 0.00 in 0 W/m2
00:50 44.2 °F 41.2 °F 30.27 in North 3 mph 15 mph 89% 0.00 in 0 W/m2
01:00 44.4 °F 41.1 °F 30.27 in North 6 mph 11 mph 88% 0.00 in 0 W/m2
01:10 44.4 °F 41.1 °F 30.27 in North 5 mph 8 mph 88% 0.00 in 0 W/m2
01:20 44.4 °F 41.4 °F 30.27 in North 5 mph 10 mph 89% 0.00 in 0 W/m2
01:30 44.6 °F 41.3 °F 30.27 in North 5 mph 10 mph 88% 0.00 in 0 W/m2
01:40 44.6 °F 41.3 °F 30.27 in North 5 mph 12 mph 88% 0.00 in 0 W/m2
01:50 44.6 °F 41.3 °F 30.27 in North 5 mph 13 mph 88% 0.00 in 0 W/m2
02:00 44.8 °F 41.4 °F 30.26 in North 5 mph 16 mph 88% 0.00 in 0 W/m2
02:10 44.8 °F 40.8 °F 30.27 in North 6 mph 15 mph 86% 0.00 in 0 W/m2
02:20 44.8 °F 41.4 °F 30.27 in North 6 mph 10 mph 88% 0.00 in 0 W/m2
02:30 45 °F 41 °F 30.26 in North 5 mph 13 mph 86% 0.00 in 0 W/m2
02:40 45 °F 41.6 °F 30.26 in North 2 mph 13 mph 88% 0.00 in 0 W/m2
02:50 45 °F 41.6 °F 30.26 in North 5 mph 15 mph 88% 0.00 in 0 W/m2
03:00 44.8 °F 41.4 °F 30.26 in North 7 mph 13 mph 88% 0.00 in 0 W/m2
03:10 44.8 °F 41.1 °F 30.26 in North 8 mph 14 mph 87% 0.00 in 0 W/m2
03:20 44.8 °F 41.4 °F 30.26 in North 7 mph 20 mph 88% 0.00 in 0 W/m2
03:30 44.8 °F 41.4 °F 30.26 in North 5 mph 13 mph 88% 0.00 in 0 W/m2
03:40 44.8 °F 41.4 °F 30.26 in North 6 mph 13 mph 88% 0.00 in 0 W/m2
03:50 44.8 °F 41.4 °F 30.26 in North 6 mph 20 mph 88% 0.00 in 0 W/m2
04:00 44.8 °F 41.4 °F 30.26 in North 5 mph 17 mph 88% 0.00 in 0 W/m2
04:10 44.6 °F 41.3 °F 30.26 in North 6 mph 16 mph 88% 0.00 in 0 W/m2
04:20 44.6 °F 41.3 °F 30.26 in North 7 mph 14 mph 88% 0.00 in 0 W/m2
04:30 44.6 °F 41.6 °F 30.26 in North 6 mph 10 mph 89% 0.00 in 0 W/m2
04:40 44.4 °F 41.4 °F 30.25 in North 6 mph 14 mph 89% 0.00 in 0 W/m2
04:50 44.2 °F 41.5 °F 30.26 in North 6 mph 14 mph 90% 0.01 in 0 W/m2
05:00 44.2 °F 41.8 °F 30.25 in North 3 mph 13 mph 91% 0.01 in 0 W/m2
05:10 44.1 °F 41.6 °F 30.25 in North 5 mph 13 mph 91% 0.01 in 0 W/m2
05:20 43.9 °F 41.4 °F 30.25 in North 8 mph 15 mph 91% 0.00 in 0 W/m2
05:30 43.7 °F 41.8 °F 30.26 in North 6 mph 15 mph 93% 0.00 in 0 W/m2
05:40 43.7 °F 41.8 °F 30.25 in North 6 mph 12 mph 93% 0.00 in 0 W/m2
05:50 43.7 °F 41.8 °F 30.26 in North 6 mph 13 mph 93% 0.00 in 0 W/m2
06:00 43.5 °F 41.6 °F 30.26 in North 6 mph 14 mph 93% 0.00 in 0 W/m2
06:10 43.5 °F 41.6 °F 30.26 in North 6 mph 15 mph 93% 0.00 in 0 W/m2
06:20 43.5 °F 41.9 °F 30.26 in North 6 mph 12 mph 94% 0.00 in 0 W/m2
06:30 43.4 °F 41.8 °F 30.26 in North 6 mph 13 mph 94% 0.00 in 0 W/m2
06:40 43.3 °F 41.7 °F 30.26 in North 7 mph 12 mph 94% 0.00 in 1 W/m2
06:50 43.4 °F 41.8 °F 30.26 in North 3 mph 14 mph 94% 0.00 in 3 W/m2
07:00 43.3 °F 41.7 °F 30.26 in North 3 mph 13 mph 94% 0.00 in 4 W/m2
07:10 43.5 °F 41.9 °F 30.26 in North 6 mph 14 mph 94% 0.00 in 9 W/m2
07:20 43.5 °F 41.9 °F 30.26 in North 3 mph 13 mph 94% 0.00 in 16 W/m2
07:30 43.7 °F 41.8 °F 30.26 in North 6 mph 12 mph 93% 0.00 in 24 W/m2
07:40 43.8 °F 41.9 °F 30.26 in North 5 mph 10 mph 93% 0.00 in 36 W/m2
07:50 44 °F 42.1 °F 30.26 in North 3 mph 12 mph 93% 0.00 in 45 W/m2
08:00 44.2 °F 42.3 °F 30.26 in North 6 mph 14 mph 93% 0.00 in 60 W/m2
08:10 44.2 °F 42.3 °F 30.26 in North 7 mph 13 mph 93% 0.00 in 58 W/m2
08:20 44.4 °F 42.5 °F 30.27 in North 8 mph 14 mph 93% 0.01 in 62 W/m2
08:30 44.3 °F 42.5 °F 30.27 in North 9 mph 15 mph 93% 0.01 in 56 W/m2
08:40 44.2 °F 42.6 °F 30.27 in North 7 mph 16 mph 94% 0.02 in 44 W/m2
08:50 44.2 °F 42.9 °F 30.27 in North 7 mph 15 mph 95% 0.02 in 39 W/m2
09:00 44.1 °F 42.7 °F 30.27 in North 6 mph 14 mph 95% 0.01 in 48 W/m2
09:10 44.1 °F 42.7 °F 30.27 in North 3 mph 15 mph 95% 0.00 in 72 W/m2
09:20 44.1 °F 43 °F 30.27 in North 5 mph 12 mph 96% 0.02 in 90 W/m2
09:30 44.2 °F 43.2 °F 30.27 in North 7 mph 13 mph 96% 0.00 in 101 W/m2
09:40 44.2 °F 43.2 °F 30.28 in North 5 mph 13 mph 96% 0.01 in 127 W/m2
09:50 44.4 °F 43.4 °F 30.28 in North 7 mph 17 mph 96% 0.00 in 129 W/m2
10:00 44.6 °F 43.5 °F 30.28 in North 6 mph 14 mph 96% 0.00 in 159 W/m2
10:10 45 °F 43.9 °F 30.28 in North 6 mph 13 mph 96% 0.00 in 157 W/m2
10:20 45 °F 43.9 °F 30.28 in North 6 mph 12 mph 96% 0.00 in 173 W/m2
10:30 45.1 °F 43.8 °F 30.28 in North 7 mph 13 mph 95% 0.00 in 152 W/m2
10:40 45.3 °F 43.7 °F 30.28 in North 6 mph 16 mph 94% 0.00 in 158 W/m2
10:50 45.5 °F 44.2 °F 30.28 in North 8 mph 13 mph 95% 0.00 in 173 W/m2
11:00 45.7 °F 44.1 °F 30.28 in North 7 mph 15 mph 94% 0.00 in 208 W/m2
11:10 46 °F 44.4 °F 30.28 in North 7 mph 15 mph 94% 0.00 in 238 W/m2
11:20 46.4 °F 44.5 °F 30.28 in North 7 mph 15 mph 93% 0.00 in 258 W/m2
11:30 46.8 °F 44.6 °F 30.28 in North 7 mph 16 mph 92% 0.00 in 230 W/m2
11:40 46.9 °F 44.4 °F 30.28 in North 7 mph 13 mph 91% 0.00 in 239 W/m2
11:50 47.1 °F 44.3 °F 30.28 in North 7 mph 20 mph 90% 0.00 in 229 W/m2
12:00 47.3 °F 44.5 °F 30.28 in North 5 mph 12 mph 90% 0.00 in 189 W/m2
12:10 47.3 °F 44.5 °F 30.28 in North 6 mph 13 mph 90% 0.00 in 174 W/m2
12:20 47.5 °F 44.4 °F 30.28 in North 8 mph 15 mph 89% 0.00 in 229 W/m2
12:30 47.8 °F 44.8 °F 30.28 in North 7 mph 12 mph 89% 0.00 in 243 W/m2
12:40 48 °F 44.9 °F 30.28 in North 7 mph 16 mph 89% 0.00 in 202 W/m2
12:50 48 °F 44.6 °F 30.28 in North 7 mph 14 mph 88% 0.00 in 209 W/m2
13:00 48 °F 44.6 °F 30.28 in North 6 mph 17 mph 88% 0.00 in 201 W/m2
13:10 48 °F 44.6 °F 30.28 in North 7 mph 15 mph 88% 0.00 in 138 W/m2
13:20 47.9 °F 44.5 °F 30.28 in North 7 mph 14 mph 88% 0.00 in 104 W/m2
13:30 47.8 °F 44.5 °F 30.28 in North 5 mph 15 mph 88% 0.00 in 91 W/m2
13:40 47.7 °F 44.3 °F 30.28 in North 6 mph 14 mph 88% 0.00 in 128 W/m2
13:50 47.8 °F 44.5 °F 30.28 in North 5 mph 14 mph 88% 0.00 in 104 W/m2
14:00 47.8 °F 43.9 °F 30.28 in North 5 mph 14 mph 86% 0.00 in 98 W/m2
14:10 47.7 °F 44.3 °F 30.28 in North 5 mph 14 mph 88% 0.00 in 89 W/m2
14:20 47.5 °F 44.1 °F 30.28 in North 6 mph 14 mph 88% 0.00 in 78 W/m2
14:30 47.3 °F 44.2 °F 30.28 in North 6 mph 14 mph 89% 0.00 in 58 W/m2
14:40 47.1 °F 44 °F 30.28 in North 8 mph 14 mph 89% 0.00 in 61 W/m2
14:50 47.1 °F 44 °F 30.28 in North 3 mph 13 mph 89% 0.00 in 47 W/m2
15:00 47 °F 43.9 °F 30.28 in North 6 mph 12 mph 89% 0.00 in 54 W/m2
15:10 47 °F 43.9 °F 30.28 in North 5 mph 13 mph 89% 0.00 in 58 W/m2
15:20 46.9 °F 44.2 °F 30.28 in North 6 mph 13 mph 90% 0.00 in 62 W/m2
15:30 46.9 °F 44.2 °F 30.28 in North 5 mph 17 mph 90% 0.00 in 49 W/m2
15:40 47 °F 44.2 °F 30.28 in North 6 mph 13 mph 90% 0.00 in 43 W/m2
15:50 46.9 °F 44.2 °F 30.28 in North 7 mph 13 mph 90% 0.00 in 46 W/m2
16:00 46.9 °F 44.2 °F 30.28 in North 6 mph 14 mph 90% 0.00 in 48 W/m2
16:10 46.8 °F 44 °F 30.28 in North 7 mph 14 mph 90% 0.00 in 53 W/m2
16:20 46.8 °F 44.3 °F 30.28 in North 6 mph 13 mph 91% 0.00 in 52 W/m2
16:30 46.6 °F 44.1 °F 30.28 in North 3 mph 12 mph 91% 0.00 in 40 W/m2
16:40 46.6 °F 44.7 °F 30.28 in North 6 mph 13 mph 93% 0.00 in 44 W/m2
16:50 46.4 °F 44.5 °F 30.28 in North 7 mph 15 mph 93% 0.00 in 42 W/m2
17:00 46.3 °F 44.3 °F 30.28 in North 6 mph 12 mph 93% 0.00 in 42 W/m2
17:10 46.2 °F 44.6 °F 30.28 in North 6 mph 13 mph 94% 0.01 in 27 W/m2
17:20 46 °F 44.4 °F 30.28 in North 6 mph 13 mph 94% 0.01 in 15 W/m2
17:30 45.9 °F 44.5 °F 30.28 in North 6 mph 13 mph 95% 0.01 in 9 W/m2
17:40 45.7 °F 44.3 °F 30.28 in North 5 mph 12 mph 95% 0.01 in 5 W/m2
17:50 45.5 °F 44.2 °F 30.28 in North 7 mph 13 mph 95% 0.00 in 3 W/m2
18:00 45.5 °F 44.2 °F 30.28 in North 5 mph 12 mph 95% 0.00 in 0 W/m2
18:10 45.5 °F 44.4 °F 30.28 in North 6 mph 13 mph 96% 0.00 in 0 W/m2
18:20 45.3 °F 44.2 °F 30.28 in North 6 mph 12 mph 96% 0.00 in 0 W/m2
18:30 45.1 °F 44.1 °F 30.28 in North 5 mph 12 mph 96% 0.00 in 0 W/m2
18:40 45.1 °F 44.1 °F 30.28 in North 7 mph 11 mph 96% 0.00 in 0 W/m2
18:50 45.1 °F 44.1 °F 30.29 in North 5 mph 11 mph 96% 0.00 in 0 W/m2
19:00 45.1 °F 44.1 °F 30.29 in North 5 mph 12 mph 96% 0.00 in 0 W/m2
19:10 45.1 °F 44 °F 30.29 in North 5 mph 13 mph 96% 0.00 in 0 W/m2
19:20 45.1 °F 44.1 °F 30.28 in North 6 mph 14 mph 96% 0.00 in 0 W/m2
19:30 45 °F 43.9 °F 30.28 in North 6 mph 9 mph 96% 0.00 in 0 W/m2
19:40 45 °F 43.9 °F 30.29 in North 6 mph 11 mph 96% 0.00 in 0 W/m2
19:50 45 °F 43.9 °F 30.28 in North 5 mph 11 mph 96% 0.00 in 0 W/m2
20:00 45 °F 43.9 °F 30.28 in North 3 mph 10 mph 96% 0.00 in 0 W/m2
20:10 45 °F 43.9 °F 30.28 in North 6 mph 13 mph 96% 0.00 in 0 W/m2
20:20 45.1 °F 44.1 °F 30.28 in North 5 mph 13 mph 96% 0.00 in 0 W/m2
20:30 45.1 °F 44.1 °F 30.29 in North 5 mph 10 mph 96% 0.00 in 0 W/m2
20:40 45.1 °F 44.1 °F 30.29 in North 3 mph 11 mph 96% 0.00 in 0 W/m2
20:50 45.1 °F 44.1 °F 30.29 in North 3 mph 14 mph 96% 0.00 in 0 W/m2
21:00 45.1 °F 44.1 °F 30.29 in North 5 mph 9 mph 96% 0.00 in 0 W/m2
21:10 45.1 °F 43.8 °F 30.29 in North 2 mph 12 mph 95% 0.00 in 0 W/m2
21:20 45.1 °F 44.1 °F 30.29 in North 3 mph 10 mph 96% 0.00 in 0 W/m2
21:30 45.2 °F 43.8 °F 30.29 in North 5 mph 12 mph 95% 0.00 in 0 W/m2
21:40 45.3 °F 44 °F 30.29 in North 6 mph 10 mph 95% 0.00 in 0 W/m2
21:50 45.5 °F 44.2 °F 30.29 in North 3 mph 11 mph 95% 0.00 in 0 W/m2
22:00 45.5 °F 44.2 °F 30.29 in North 6 mph 10 mph 95% 0.00 in 0 W/m2
22:10 45.5 °F 43.9 °F 30.29 in North 3 mph 12 mph 94% 0.00 in 0 W/m2
22:20 45.7 °F 44.1 °F 30.29 in North 5 mph 12 mph 94% 0.00 in 0 W/m2
22:30 45.7 °F 44.1 °F 30.29 in North 3 mph 12 mph 94% 0.00 in 0 W/m2
22:40 45.9 °F 44 °F 30.29 in North 5 mph 9 mph 93% 0.00 in 0 W/m2
22:50 45.9 °F 44 °F 30.29 in North 3 mph 9 mph 93% 0.00 in 0 W/m2
23:00 46 °F 44.1 °F 30.29 in North 5 mph 12 mph 93% 0.00 in 0 W/m2
23:10 46 °F 44.1 °F 30.29 in North 5 mph 13 mph 93% 0.00 in 0 W/m2
23:20 46 °F 44.1 °F 30.29 in North 5 mph 11 mph 93% 0.00 in 0 W/m2
23:30 46 °F 44.1 °F 30.29 in North 3 mph 11 mph 93% 0.00 in 0 W/m2
23:40 46 °F 44.1 °F 30.29 in North 3 mph 10 mph 93% 0.00 in 0 W/m2
23:50 46 °F 44.1 °F 30.29 in North 5 mph 11 mph 93% 0.00 in 0 W/m2
Knjazevac, Serbia
Compliments of Weather Underground - 2 mb